| time (UTC) | temp F | wind direction | speed MPH | gust MPH | rain 1hr in | rain 24hr in | rain mn in | humidity % | barometer mb |
| 20260906220005 | 69 | 93 | 0.0 | 2.0 | 0.00 | 0.00 | 0.00 | 53 | 1014.6 |
| 20260906214502 | 69 | 93 | 0.0 | 3.0 | 0.00 | 0.00 | 0.00 | 53 | 1014.6 |
| 20260906211501 | 67 | 125 | 1.0 | 2.0 | 0.00 | 0.00 | 0.00 | 58 | 1014.7 |
| 20260906210005 | 67 | 121 | 0.0 | 2.0 | 0.00 | 0.00 | 0.00 | 61 | 1014.8 |
| 20260906204502 | 67 | 47 | 0.0 | 2.0 | 0.00 | 0.00 | 0.00 | 62 | 1014.9 |
| 20260906203003 | 66 | 94 | 0.0 | 2.0 | 0.00 | 0.00 | 0.00 | 63 | 1014.9 |
| 20260906201503 | 66 | 97 | 0.0 | 3.0 | 0.00 | 0.00 | 0.00 | 64 | 1014.9 |
| 20260906200004 | 66 | 173 | 0.0 | 2.0 | 0.00 | 0.00 | 0.00 | 64 | 1015.1 |
| 20260906194502 | 65 | 58 | 0.0 | 2.0 | 0.00 | 0.03 | 0.00 | 66 | 1015.1 |
| 20260906193002 | 64 | 63 | 0.0 | 2.0 | 0.00 | 0.03 | 0.00 | 67 | 1015.2 |
| 20260906191503 | 64 | 119 | 1.0 | 3.0 | 0.00 | 0.03 | 0.00 | 68 | 1015.3 |
| 20260906184502 | 62 | 119 | 0.0 | 3.0 | 0.00 | 0.03 | 0.00 | 70 | 1015.6 |
| 20260906183001 | 62 | 98 | 1.0 | 3.0 | 0.00 | 0.03 | 0.00 | 69 | 1015.7 |
| 20260906180001 | 61 | 127 | 0.0 | 3.0 | 0.00 | 0.03 | 0.00 | 70 | 1015.7 |
| 20260906171501 | 59 | 102 | 0.0 | 0.0 | 0.00 | 0.03 | 0.00 | 77 | 1015.8 |
| 20260906164503 | 58 | 117 | 0.0 | 2.0 | 0.00 | 0.03 | 0.00 | 79 | 1015.9 |
| 20260906163003 | 57 | 117 | 0.0 | 2.0 | 0.00 | 0.03 | 0.00 | 81 | 1016.0 |
| 20260906161502 | 56 | 138 | 0.0 | 0.0 | 0.00 | 0.03 | 0.00 | 82 | 1015.9 |
| 20260906154500 | 53 | 138 | 0.0 | 0.0 | 0.00 | 0.03 | 0.00 | 86 | 1016.0 |
| 20260906151500 | 51 | 138 | 0.0 | 0.0 | 0.00 | 0.03 | 0.00 | 90 | 1015.7 |
| 20260906150001 | 51 | 138 | 0.0 | 0.0 | 0.00 | 0.03 | 0.00 | 90 | 1015.7 |
| 20260906144500 | 50 | 138 | 0.0 | 0.0 | 0.00 | 0.03 | 0.00 | 89 | 1015.5 |
| 20260906143001 | 50 | 138 | 0.0 | 2.0 | 0.00 | 0.03 | 0.00 | 89 | 1015.6 |
| 20260906140003 | 50 | 92 | 0.0 | 0.0 | 0.00 | 0.03 | 0.00 | 90 | 1015.4 |
| 20260906134502 | 50 | 92 | 0.0 | 0.0 | 0.00 | 0.03 | 0.00 | 90 | 1015.5 |
| 20260906133001 | 50 | 92 | 0.0 | 0.0 | 0.00 | 0.03 | 0.00 | 90 | 1015.3 |
| 20260906130002 | 51 | 92 | 0.0 | 0.0 | 0.00 | 0.03 | 0.00 | 89 | 1015.4 |
| 20260906124502 | 51 | 92 | 0.0 | 0.0 | 0.00 | 0.03 | 0.00 | 88 | 1015.4 |
| 20260906123000 | 51 | 92 | 0.0 | 0.0 | 0.00 | 0.03 | 0.00 | 88 | 1015.5 |
| 20260906121500 | 51 | 92 | 0.0 | 0.0 | 0.00 | 0.03 | 0.00 | 89 | 1015.4 |
| 20260906120003 | 51 | 92 | 0.0 | 0.0 | 0.00 | 0.03 | 0.00 | 89 | 1015.5 |
| 20260906114500 | 51 | 92 | 0.0 | 0.0 | 0.00 | 0.03 | 0.00 | 89 | 1015.4 |
| 20260906113001 | 51 | 92 | 0.0 | 0.0 | 0.00 | 0.03 | 0.00 | 89 | 1015.4 |
| 20260906111500 | 52 | 92 | 0.0 | 0.0 | 0.00 | 0.03 | 0.00 | 88 | 1015.5 |
| 20260906104500 | 52 | 92 | 0.0 | 0.0 | 0.00 | 0.03 | 0.00 | 88 | 1015.8 |
| 20260906103000 | 52 | 92 | 0.0 | 0.0 | 0.00 | 0.03 | 0.00 | 88 | 1015.7 |
| 20260906100005 | 52 | 92 | 0.0 | 0.0 | 0.00 | 0.03 | 0.00 | 87 | 1015.7 |
| 20260906093000 | 53 | 92 | 0.0 | 0.0 | 0.00 | 0.03 | 0.00 | 87 | 1015.6 |
| 20260906090000 | 53 | 92 | 0.0 | 0.0 | 0.00 | 0.03 | 0.00 | 86 | 1015.5 |
| 20260906084501 | 53 | 92 | 0.0 | 0.0 | 0.00 | 0.03 | 0.00 | 86 | 1015.6 |
| 20260906083001 | 53 | 92 | 0.0 | 0.0 | 0.00 | 0.03 | 0.00 | 85 | 1015.9 |
| 20260906081500 | 54 | 92 | 0.0 | 0.0 | 0.00 | 0.03 | 0.00 | 85 | 1015.7 |
| 20260906080005 | 54 | 92 | 0.0 | 0.0 | 0.00 | 0.03 | 0.00 | 85 | 1015.7 |
| 20260906074503 | 55 | 92 | 0.0 | 0.0 | 0.00 | 0.03 | 0.00 | 84 | 1015.8 |
| 20260906073004 | 55 | 92 | 0.0 | 0.0 | 0.00 | 0.03 | 0.00 | 84 | 1015.6 |
| 20260906071503 | 55 | 92 | 0.0 | 0.0 | 0.00 | 0.03 | 0.00 | 84 | 1015.8 |
| 20260906070008 | 55 | 92 | 0.0 | 0.0 | 0.00 | 0.03 | 0.03 | 83 | 1015.9 |
| 20260906063003 | 56 | 92 | 0.0 | 0.0 | 0.00 | 0.03 | 0.03 | 83 | 1015.9 |
| 20260906054503 | 57 | 92 | 0.0 | 0.0 | 0.00 | 0.03 | 0.03 | 82 | 1016.0 |
| 20260906053003 | 57 | 92 | 0.0 | 0.0 | 0.00 | 0.03 | 0.03 | 81 | 1016.1 |
| 20260906051502 | 57 | 92 | 0.0 | 0.0 | 0.00 | 0.03 | 0.03 | 80 | 1016.2 |
| 20260906050005 | 58 | 92 | 0.0 | 0.0 | 0.00 | 0.03 | 0.03 | 79 | 1016.3 |
| 20260906044503 | 58 | 92 | 0.0 | 0.0 | 0.00 | 0.03 | 0.03 | 78 | 1016.4 |
| 20260906040003 | 59 | 92 | 0.0 | 0.0 | 0.00 | 0.03 | 0.03 | 75 | 1016.3 |
| 20260906034502 | 60 | 92 | 0.0 | 0.0 | 0.00 | 0.03 | 0.03 | 73 | 1016.3 |
| 20260906033002 | 61 | 92 | 0.0 | 0.0 | 0.00 | 0.03 | 0.03 | 72 | 1016.2 |
| 20260906031502 | 62 | 92 | 0.0 | 0.0 | 0.00 | 0.03 | 0.03 | 71 | 1016.1 |
| 20260906024502 | 63 | 92 | 0.0 | 0.0 | 0.00 | 0.03 | 0.03 | 69 | 1016.1 |
| 20260906023002 | 64 | 92 | 0.0 | 0.0 | 0.00 | 0.03 | 0.03 | 67 | 1016.1 |
| 20260906021502 | 64 | 92 | 0.0 | 0.0 | 0.00 | 0.03 | 0.03 | 65 | 1016.0 |
| 20260906020002 | 65 | 92 | 0.0 | 0.0 | 0.00 | 0.03 | 0.03 | 65 | 1015.9 |
| 20260906014503 | 66 | 92 | 0.0 | 2.0 | 0.00 | 0.03 | 0.03 | 59 | 1015.8 |
| 20260906013001 | 66 | 92 | 0.0 | 3.0 | 0.00 | 0.03 | 0.03 | 58 | 1015.8 |
| 20260906011502 | 67 | 84 | 0.0 | 2.0 | 0.00 | 0.03 | 0.03 | 57 | 1015.8 |
| 20260906010006 | 67 | 92 | 1.0 | 3.0 | 0.00 | 0.03 | 0.03 | 56 | 1015.8 |
| 20260906004502 | 67 | 158 | 0.0 | 2.0 | 0.00 | 0.03 | 0.03 | 58 | 1015.8 |
| 20260906003003 | 67 | 166 | 1.0 | 4.0 | 0.00 | 0.03 | 0.03 | 57 | 1015.7 |
| 20260906001503 | 66 | 27 | 0.0 | 2.0 | 0.00 | 0.03 | 0.03 | 57 | 1015.7 |
| 20260906000007 | 66 | 141 | 0.0 | 2.0 | 0.00 | 0.03 | 0.03 | 58 | 1015.6 |
| 20260905234502 | 66 | 47 | 1.0 | 2.0 | 0.00 | 0.03 | 0.03 | 59 | 1015.8 |
| 20260905231502 | 66 | 154 | 1.0 | 4.0 | 0.00 | 0.03 | 0.03 | 59 | 1015.8 |
| 20260905230004 | 65 | 192 | 1.0 | 3.0 | 0.00 | 0.03 | 0.03 | 60 | 1015.9 |
| 20260905224503 | 65 | 166 | 0.0 | 0.0 | 0.00 | 0.03 | 0.03 | 64 | 1016.0 |
| 20260905223005 | 65 | 139 | 0.0 | 3.0 | 0.00 | 0.03 | 0.03 | 67 | 1016.1 |
| 20260905221502 | 64 | 141 | 0.0 | 2.0 | 0.00 | 0.03 | 0.03 | 63 | 1016.4 |